{"data":{"norad_id":63797,"intl_designator":"2025-091Y","name":"STARLINK-33712","alt_names":[],"object_type":"PAYLOAD","status":"ACTIVE","operator":null,"country":"US","launch_date":"2025-05-02","launch_site_code":"AFETR","launch_vehicle":null,"mission":null,"orbit_class":"UNKNOWN","rcs_meters":null,"size_class":null,"mass_kg":null,"dimensions":null,"purposes":["comms"],"wikipedia_slug":null,"has_3d_model":false,"image_url":null,"decayed_at":null,"tle_current":{"epoch":"2026-09-20T19:42:03.041856Z","epoch_age_seconds":122123,"freshness":"FRESH","line1":"1 63797U 25091Y   26263.82086854  .00010286  00000+0  38275-3 0  9993","line2":"2 63797  43.0050  34.1669 0002343 268.3781  91.6802 15.27583503 78709","mean_motion":15.27583503,"eccentricity":0.0002343,"inclination_deg":43.005,"raan_deg":34.1669,"arg_perigee_deg":268.3781,"mean_anomaly_deg":91.6802,"bstar":0.00038275,"rev_number":7870,"period_min":94.266532544506,"perigee_km":481.43103337282,"apogee_km":484.64618026218,"semimajor_km":6861.1756068175,"source":"CELESTRAK","updated_at":"2026-09-21T09:00:35.102335Z"}}}